Simultaneous Nadir Overpasses (SNOs) Predictions

Prediction of SNOs between TERRA and METOP-C Satellite Orbit:

Table of predicted SNOs for the next 14.0 days since TLE Epoch: 4/9/2022
Index Date (TERRA) Time (TERRA) Lat,Lon (TERRA) SZA (TERRA ) Date (METOP-C) Time (METOP-C) Lat,Lon (METOP-C) SZA (METOP-C ) Distance(km) Time Diff (sec)
1 04/11/2022 21:46:27 -81.18, 75.12 105.15 04/11/2022 21:45:22 -81.19, 75.28 105.16 2.83 65
2 04/11/2022 22:35:52 81.21,-116.79 74.91 04/11/2022 22:36:02 81.20,-116.88 74.90 1.69 10
3 04/14/2022 17:20:40 -81.18, 141.52 106.16 04/14/2022 17:19:44 -81.19, 141.58 106.17 1.41 56
4 04/14/2022 18:10:05 81.21, -50.42 73.90 04/14/2022 18:10:24 81.20, -50.55 73.89 2.34 19
5 04/17/2022 12:54:52 -81.19,-151.85 107.10 04/17/2022 12:54:05 -81.19,-151.77 107.12 1.36 47
6 04/17/2022 13:44:18 81.19, 15.82 72.89 04/17/2022 13:44:46 81.20, 15.72 72.90 1.71 28
7 04/20/2022 08:29:03 -81.20, -85.35 108.05 04/20/2022 08:28:25 -81.20, -85.17 108.05 3.01 38
8 04/20/2022 09:18:29 81.20, 82.30 71.94 04/20/2022 09:19:06 81.20, 82.33 71.97 0.88 37



Historial Predications of SNOs between TERRA and METOP-C
